Flag for U.S.A. Weather past 2 weeks in Vallejo, California, U.S.A.

Now
68 °F

Clear.


Feels Like: 68 °F
Forecast: 63 / 84 °F
Wind: 8 mph from South

Location: Napa County Airport

Current Time: Aug 28, 2015 at 12:48:14 AM

Latest Report: Aug 27, 2015 at 11:54 PM


Visibility: 10 mi

Pressure: 29.91 "Hg

Humidity: 61%

Dew point: 54 °F

Location of VallejoLocation

Historic Weather in Vallejo — Graph

°F

Vallejo temperature yesterday

Maximum temperature yesterday: 90 °F (at 3:54 PM)
Minimum temperature yesterday: 55 °F (at 4:54 AM)
Average temperature yesterday: 72 °F

Past Weeks' High & Low Weather Summary

 TemperatureHumidityPressure
High100 °F (Aug 16, 3:54 PM)100% (Aug 13, 4:04 AM)30.04 "Hg (Aug 13, 4:04 AM)
Low52 °F (Aug 15, 6:54 AM)13% (Aug 16, 3:54 PM)29.75 "Hg (Aug 17, 4:54 PM)
Average67 °F71%29.91 "Hg
* Reported Aug 12 11:54 PM — Aug 27 11:54 PM, Vallejo, Weather by CustomWeather, © 2015

Note: Actual official high and low records may vary slightly from our data, if they occured in-between our weather recording intervals... More about our weather records

Advertising

Vallejo weather history for previous 24 hours

 ConditionsComfort  
Time TempWeatherWind HumidityBarometerVisibility
11:54 PM
Thu, Aug 27
68 °FClear.8 mph61%29.91 "Hg10 mi
10:54 PM69 °FClear.8 mph57%29.91 "Hg10 mi
9:54 PM69 °FClear.6 mph53%29.92 "Hg10 mi
8:54 PM73 °FClear.7 mph46%29.91 "Hg10 mi
7:54 PM76 °FSunny.5 mph39%29.89 "Hg10 mi
6:54 PM81 °FSunny.13 mph37%29.90 "Hg10 mi
5:54 PM85 °FSunny.17 mph30%29.91 "Hg10 mi
4:54 PM90 °FSunny.21 mph23%29.92 "Hg10 mi
3:54 PM90 °FSunny.15 mph32%29.94 "Hg10 mi
2:54 PM88 °FSunny.14 mph34%29.96 "Hg10 mi
1:54 PM86 °FSunny.13 mph31%29.97 "Hg10 mi
12:54 PM82 °FSunny.9 mph35%29.99 "Hg10 mi
11:54 AM79 °FSunny.8 mph41%30.01 "Hg10 mi
10:54 AM76 °FSunny.5 mph45%30.02 "Hg10 mi
9:54 AM72 °FSunny.7 mph48%30.02 "Hg10 mi
8:54 AM68 °FSunny.7 mph57%30.02 "Hg10 mi
7:54 AM62 °FSunny.No wind70%30.02 "Hg10 mi
6:54 AM55 °FClear.No wind87%30.00 "Hg10 mi
5:54 AM55 °FClear.No wind90%29.99 "Hg10 mi
4:54 AM55 °FClear.No wind87%29.98 "Hg10 mi
3:54 AM57 °FClear.No wind78%29.98 "Hg10 mi
2:54 AM61 °FClear.No wind72%29.98 "Hg10 mi
1:54 AM61 °FClear.5 mph72%29.98 "Hg10 mi
12:54 AM62 °FClear.6 mph67%29.98 "Hg10 mi
Weather by CustomWeather, © 2015

See weather overviewHow to use our weather pages